Hourly Weather Ruda

Today, 23 April, Friday

Time Temperature Precipitation Wind Pressure Humidity
00:00 +1°C° 0 mm 5 mps 759 mmHg 65%
01:00 +1°C° 0 mm 5 mps 759 mmHg 67%
02:00 0°C° 0 mm 4 mps 759 mmHg 71%
03:00 0°C° 0 mm 4 mps 759 mmHg 74%
04:00 -1°C° 0 mm 4 mps 760 mmHg 78%
05:00 0°C° 0 mm 4 mps 760 mmHg 74%
06:00 +2°C° 0 mm 5 mps 760 mmHg 70%
07:00 +3°C° 0 mm 5 mps 760 mmHg 65%
08:00 +4°C° 0.1 mm 6 mps 760 mmHg 56%
09:00 +7°C° 0.1 mm 6 mps 761 mmHg 46%
10:00 +8°C° 0.1 mm 7 mps 761 mmHg 36%
11:00 +8°C° 0 mm 7 mps 761 mmHg 33%
12:00 +9°C° 0 mm 7 mps 761 mmHg 31%
13:00 +9°C° 0 mm 7 mps 761 mmHg 28%
14:00 +9°C° 0 mm 7 mps 762 mmHg 30%
15:00 +9°C° 0 mm 6 mps 762 mmHg 33%
16:00 +8°C° 0 mm 6 mps 762 mmHg 35%
17:00 +7°C° 0 mm 5 mps 762 mmHg 38%
18:00 +5°C° 0 mm 4 mps 762 mmHg 42%
19:00 +5°C° 0 mm 2 mps 762 mmHg 45%
20:00 +4°C° 0 mm 2 mps 763 mmHg 48%
21:00 +3°C° 0 mm 2 mps 763 mmHg 51%
22:00 +3°C° 0 mm 2 mps 763 mmHg 53%
23:00 +2°C° 0 mm 2 mps 763 mmHg 58%

Tomorrow, 24 April, Saturday

Time Temperature Precipitation Wind Pressure Humidity
00:00 +2°C° 0 mm 2 mps 763 mmHg 62%
01:00 +2°C° 0 mm 2 mps 763 mmHg 67%
02:00 +1°C° 0 mm 2 mps 763 mmHg 72%
03:00 +1°C° 0 mm 2 mps 762 mmHg 77%
04:00 -1°C° 0 mm 2 mps 762 mmHg 82%
05:00 +2°C° 0 mm 2 mps 763 mmHg 73%
06:00 +3°C° 0 mm 3 mps 763 mmHg 63%
07:00 +4°C° 0 mm 3 mps 763 mmHg 54%
08:00 +7°C° 0 mm 3 mps 763 mmHg 46%
09:00 +8°C° 0 mm 3 mps 763 mmHg 38%
10:00 +9°C° 0 mm 3 mps 763 mmHg 30%
11:00 +10°C° 0 mm 3 mps 762 mmHg 31%
12:00 +10°C° 0 mm 4 mps 762 mmHg 31%
13:00 +11°C° 0 mm 4 mps 762 mmHg 31%
14:00 +9°C° 0 mm 5 mps 762 mmHg 37%
15:00 +8°C° 0 mm 5 mps 762 mmHg 43%
16:00 +8°C° 0 mm 6 mps 762 mmHg 48%
17:00 +6°C° 0 mm 5 mps 762 mmHg 55%
18:00 +4°C° 0 mm 3 mps 763 mmHg 62%
19:00 +3°C° 0 mm 2 mps 763 mmHg 69%
20:00 +3°C° 0 mm 2 mps 763 mmHg 68%
21:00 +3°C° 0 mm 1 mps 763 mmHg 68%
22:00 +2°C° 0 mm 1 mps 763 mmHg 67%
23:00 +2°C° 0 mm 1 mps 763 mmHg 67%

Day after tomorrow, 25 April, Sunday

Time Temperature Precipitation Wind Pressure Humidity
00:00 -1°C° 0 mm 2 mps 763 mmHg 66%
01:00 -1°C° 0 mm 2 mps 763 mmHg 65%
02:00 -1°C° 0 mm 2 mps 763 mmHg 65%
03:00 -1°C° 0 mm 2 mps 763 mmHg 66%
04:00 -1°C° 0 mm 2 mps 763 mmHg 66%
05:00 0°C° 0 mm 3 mps 763 mmHg 61%
06:00 +2°C° 0 mm 3 mps 763 mmHg 56%
07:00 +3°C° 0 mm 3 mps 763 mmHg 51%
08:00 +4°C° 0 mm 4 mps 763 mmHg 45%
09:00 +6°C° 0 mm 5 mps 763 mmHg 40%
10:00 +7°C° 0 mm 5 mps 763 mmHg 35%
11:00 +7°C° 0 mm 6 mps 762 mmHg 34%
12:00 +6°C° 0 mm 7 mps 762 mmHg 33%
13:00 +8°C° 0 mm 7 mps 762 mmHg 33%
14:00 +6°C° 0 mm 7 mps 762 mmHg 34%
15:00 +6°C° 0 mm 7 mps 762 mmHg 36%
16:00 +6°C° 0 mm 7 mps 762 mmHg 37%
17:00 +5°C° 0 mm 5 mps 762 mmHg 42%
18:00 +4°C° 0 mm 4 mps 762 mmHg 46%
19:00 +2°C° 0 mm 3 mps 762 mmHg 51%
20:00 +2°C° 0 mm 2 mps 762 mmHg 54%
21:00 +1°C° 0 mm 2 mps 763 mmHg 58%
22:00 +1°C° 0 mm 1 mps 763 mmHg 61%
23:00 -1°C° 0 mm 2 mps 762 mmHg 65%

26 April, Monday

Time Temperature Precipitation Wind Pressure Humidity
00:00 -1°C° 0 mm 2 mps 762 mmHg 69%
01:00 -1°C° 0 mm 2 mps 762 mmHg 72%
02:00 -2°C° 0 mm 2 mps 762 mmHg 75%
03:00 -2°C° 0 mm 3 mps 761 mmHg 77%
04:00 -2°C° 0 mm 3 mps 761 mmHg 80%
05:00 0°C° 0 mm 3 mps 761 mmHg 74%
06:00 +1°C° 0 mm 3 mps 761 mmHg 67%
07:00 +3°C° 0 mm 3 mps 761 mmHg 61%
08:00 +4°C° 0 mm 3 mps 760 mmHg 53%
09:00 +7°C° 0 mm 3 mps 760 mmHg 44%
10:00 +7°C° 0 mm 4 mps 760 mmHg 36%
11:00 +8°C° 0 mm 4 mps 760 mmHg 37%
12:00 +8°C° 0 mm 4 mps 759 mmHg 39%
13:00 +8°C° 0 mm 4 mps 759 mmHg 41%
14:00 +8°C° 0.1 mm 4 mps 759 mmHg 40%
15:00 +8°C° 0.1 mm 4 mps 759 mmHg 39%
16:00 +8°C° 0.1 mm 5 mps 758 mmHg 38%
17:00 +6°C° 0 mm 4 mps 758 mmHg 46%
18:00 +5°C° 0 mm 3 mps 758 mmHg 54%
19:00 +4°C° 0 mm 2 mps 759 mmHg 62%
20:00 +3°C° 0 mm 2 mps 759 mmHg 66%
21:00 +3°C° 0 mm 1 mps 759 mmHg 70%
22:00 +2°C° 0 mm 1 mps 759 mmHg 74%
23:00 +2°C° 0 mm 1 mps 759 mmHg 75%

27 April, Tuesday

Time Temperature Precipitation Wind Pressure Humidity
00:00 +2°C° 0 mm 1 mps 759 mmHg 76%
01:00 -1°C° 0 mm 2 mps 759 mmHg 78%
02:00 -1°C° 0 mm 2 mps 758 mmHg 77%
03:00 -1°C° 0 mm 2 mps 758 mmHg 77%
04:00 -1°C° 0 mm 2 mps 758 mmHg 76%
05:00 +2°C° 0 mm 2 mps 758 mmHg 69%
06:00 +4°C° 0 mm 1 mps 758 mmHg 61%
07:00 +6°C° 0 mm 1 mps 757 mmHg 54%
08:00 +7°C° 0 mm 2 mps 757 mmHg 49%
09:00 +8°C° 0 mm 2 mps 757 mmHg 44%
10:00 +9°C° 0 mm 2 mps 757 mmHg 39%
11:00 +10°C° 0 mm 2 mps 756 mmHg 39%
12:00 +10°C° 0 mm 2 mps 756 mmHg 38%
13:00 +12°C° 0 mm 2 mps 755 mmHg 38%
14:00 +11°C° 0 mm 3 mps 755 mmHg 39%
15:00 +11°C° 0 mm 3 mps 755 mmHg 41%
16:00 +11°C° 0 mm 3 mps 754 mmHg 42%
17:00 +10°C° 0 mm 3 mps 754 mmHg 48%
18:00 +8°C° 0 mm 3 mps 754 mmHg 54%
19:00 +7°C° 0 mm 2 mps 754 mmHg 59%
20:00 +7°C° 0 mm 2 mps 753 mmHg 60%
21:00 +5°C° 0 mm 3 mps 753 mmHg 61%
22:00 +5°C° 0 mm 3 mps 753 mmHg 62%
23:00 +5°C° 0 mm 3 mps 752 mmHg 63%

28 April, Wednesday

Time Temperature Precipitation Wind Pressure Humidity
00:00 +4°C° 0 mm 3 mps 752 mmHg 65%
01:00 +4°C° 0 mm 3 mps 752 mmHg 66%
02:00 +4°C° 0 mm 3 mps 751 mmHg 66%
03:00 +4°C° 0 mm 3 mps 751 mmHg 67%
04:00 +4°C° 0 mm 3 mps 751 mmHg 67%
05:00 +5°C° 0 mm 3 mps 751 mmHg 66%
06:00 +5°C° 0 mm 3 mps 751 mmHg 65%
07:00 +7°C° 0 mm 3 mps 750 mmHg 64%
08:00 +8°C° 0 mm 3 mps 750 mmHg 63%
09:00 +9°C° 0 mm 3 mps 750 mmHg 62%
10:00 +10°C° 0 mm 4 mps 750 mmHg 61%
11:00 +10°C° 0 mm 4 mps 750 mmHg 63%
12:00 +10°C° 0 mm 4 mps 750 mmHg 65%
13:00 +10°C° 0 mm 4 mps 750 mmHg 67%
14:00 +10°C° 0.1 mm 4 mps 750 mmHg 71%
15:00 +8°C° 0.1 mm 4 mps 750 mmHg 74%
16:00 +8°C° 0.1 mm 4 mps 750 mmHg 78%
17:00 +7°C° 0 mm 4 mps 750 mmHg 81%
18:00 +6°C° 0 mm 4 mps 750 mmHg 83%
19:00 +7°C° 0 mm 3 mps 750 mmHg 86%
20:00 +7°C° 0 mm 3 mps 750 mmHg 87%
21:00 +7°C° 0 mm 3 mps 750 mmHg 87%
22:00 +5°C° 0 mm 3 mps 750 mmHg 88%
23:00 +5°C° 0 mm 3 mps 750 mmHg 88%
Show more